Wind_Speed
26 26 25 25 27 27 26 25 25 25 25 25 25 26 26 27 26 27 25 24 24 23 22 22 21 21 21 20 20 19 19 19 18 17 16 16 15 15 15 15 14 13 13 13 13 14 14 13 13
28 28 27 26 27 27 26 26 26 27 26 25 26 27 28 28 27 27 26 26 26 25 24 24 23 22 22 22 21 20 21 20 20 19 18 18 17 17 17 16 16 15 15 15 15 16 15 15 15
29 29 29 28 27 27 26 27 28 27 26 26 27 28 29 29 28 27 27 27 27 27 26 25 25 25 24 23 23 22 22 22 21 20 20 19 19 18 18 18 18 18 17 17 17 17 17 17 17
29 30 30 30 28 27 27 28 29 28 27 28 28 29 29 29 28 28 28 28 27 27 27 27 26 26 26 25 24 24 24 24 23 22 22 21 20 20 20 19 19 19 19 19 19 19 19 19 19
30 30 31 30 29 28 28 28 29 28 28 29 29 29 30 30 29 29 29 28 28 28 28 28 28 28 27 27 26 26 25 25 24 24 23 23 22 22 21 21 21 21 21 20 20 21 21 20 20
30 31 31 30 29 29 29 28 29 30 29 29 30 30 30 30 30 30 30 30 29 29 29 29 30 30 29 28 28 27 27 26 26 25 25 24 24 23 23 23 23 23 23 23 23 23 23 23 22
30 31 31 30 30 30 30 29 29 30 29 29 30 31 31 30 30 31 31 31 31 30 30 30 31 31 31 31 30 29 28 28 28 27 26 26 25 25 25 25 25 25 25 25 25 25 25 24 24
31 31 31 31 31 31 31 30 29 29 29 29 30 30 29 29 30 31 31 32 32 32 31 31 32 32 32 32 31 31 30 30 29 29 29 28 28 27 27 27 27 27 27 27 27 27 26 26 26
31 32 31 31 32 32 31 31 30 30 29 29 30 30 29 29 29 30 31 32 32 32 32 32 33 33 33 33 33 32 32 32 31 31 31 30 30 30 30 30 30 29 29 29 29 29 29 28 28
31 32 32 32 32 33 32 32 31 31 30 30 30 30 30 29 30 30 31 31 32 32 32 33 33 34 34 34 34 34 34 34 33 33 32 33 33 32 32 31 31 31 31 31 31 31 31 31 31
31 31 31 32 32 33 34 33 31 32 32 31 30 31 31 31 31 31 31 31 32 32 32 33 33 34 35 35 35 35 35 35 35 35 34 34 34 33 33 33 32 33 33 33 33 32 32 33 33
31 31 31 31 32 33 34 33 32 32 32 31 31 31 32 32 32 32 32 32 32 32 33 34 35 35 36 36 36 36 36 36 37 37 37 36 35 35 35 35 35 35 35 35 35 35 35 35 35
32 32 32 32 32 33 34 34 34 33 32 32 32 33 32 33 33 33 33 34 34 34 34 35 36 37 37 37 38 38 38 38 39 39 38 38 37 36 36 36 37 37 37 37 37 37 37 37 37
31 32 33 33 33 33 34 34 35 34 33 33 33 33 33 33 33 34 34 34 35 35 35 36 37 38 39 39 39 39 40 40 40 40 40 39 39 39 38 39 39 38 38 38 38 39 39 39 39
31 32 33 32 32 33 34 35 35 35 35 35 34 34 34 34 34 34 35 35 35 36 37 37 38 39 40 40 41 41 41 41 41 41 41 41 41 41 41 41 40 40 40 40 40 40 41 41 40
31 33 33 32 32 33 35 35 35 35 36 36 36 36 35 35 35 35 36 37 37 37 37 38 39 39 40 41 42 42 42 43 43 43 43 43 43 43 43 43 43 43 43 42 42 42 42 42 42
31 32 33 33 34 34 35 35 35 35 36 37 37 37 37 37 36 37 37 37 38 38 38 39 40 40 40 41 42 43 43 43 44 44 44 44 44 44 44 44 44 45 45 45 45 45 44 44 44
30 31 33 34 35 35 35 35 35 36 36 37 38 39 39 39 38 39 39 38 38 39 40 40 41 42 43 43 43 44 44 45 45 45 45 45 45 45 45 45 45 45 46 46 46 46 46 46 46
30 31 32 33 34 35 35 35 34 36 37 37 38 38 39 40 40 40 40 40 40 40 40 40 40 41 43 44 44 44 45 45 46 46 46 46 46 46 45 45 45 46 46 46 47 47 47 47 47
30 31 32 32 33 33 34 35 35 35 36 37 38 39 39 40 40 41 41 41 41 41 42 41 42 42 43 44 45 45 45 46 46 47 46 46 46 46 45 45 45 46 46 47 47 47 48 48 48
29 30 31 32 32 32 33 34 34 35 36 37 37 38 39 40 40 41 41 42 42 42 42 43 43 43 43 44 44 44 45 46 46 46 46 46 46 46 46 46 47 47 47 47 48 48 49 48 48
29 30 31 32 32 32 32 33 31 33 34 35 35 36 37 38 39 40 41 41 42 42 43 43 43 43 44 44 44 45 45 45 45 45 46 46 46 47 47 48 48 48 48 48 49 49 49 49 49
29 29 30 31 32 32 32 34 32 31 32 33 34 35 36 37 38 39 40 41 42 42 43 43 43 43 44 44 44 44 45 46 46 46 46 46 47 47 48 48 48 49 49 49 50 50 50 50 51
29 30 30 31 32 32 31 33 32 31 31 31 32 33 34 35 36 37 38 39 41 42 42 42 43 43 44 44 44 45 44 45 46 47 47 47 48 48 49 49 49 50 50 51 51 51 51 52 52
28 28 29 29 30 30 29 30 31 29 30 30 30 31 32 33 34 35 36 36 37 38 39 40 41 42 43 43 44 44 44 45 45 46 47 48 48 49 50 50 51 51 51 51 52 52 53 53 53
27 28 28 28 28 27 27 28 28 27 28 29 29 29 30 31 33 34 34 34 35 35 36 37 38 40 40 41 42 43 44 44 45 45 46 47 48 49 50 51 52 52 52 52 53 53 54 54 54
26 26 26 27 27 27 27 27 27 26 26 27 28 29 29 30 32 33 33 33 33 34 35 36 37 38 39 39 40 41 42 43 44 44 45 46 48 49 49 50 51 52 52 53 53 53 53 53 53
24 24 24 25 26 27 27 26 26 25 25 26 26 27 27 28 29 30 31 31 32 33 34 35 35 36 37 37 38 39 40 41 42 43 44 45 46 47 49 49 50 51 51 51 51 51 51 51 52
23 24 25 26 26 26 27 26 26 26 26 26 26 27 27 28 29 29 30 31 32 32 33 34 35 35 35 36 38 39 40 41 41 42 43 43 44 46 47 48 48 49 49 50 50 51 51 52 52
24 24 25 26 26 26 27 27 26 27 26 26 26 27 27 28 29 29 30 31 32 33 33 34 34 35 35 36 37 38 39 40 41 41 42 43 43 44 45 46 47 47 48 49 50 50 51 51 51
Wind_Direction
247 247 247 245 244 245 248 247 246 245 245 245 247 247 248 249 249 250 251 251 250 249 249 249 249 250 250 250 251 251 251 252 251 251 250 250 251 252 252 254 256 257 258 259 260 262 266 269 271
247 248 248 247 246 247 248 248 248 246 246 247 247 246 247 248 249 251 251 252 252 250 250 251 250 250 250 250 250 250 251 252 252 251 251 252 253 254 254 254 255 257 258 259 260 263 266 268 270
247 248 249 249 247 248 248 248 247 247 246 246 246 247 247 249 249 250 250 252 252 250 250 251 251 250 250 250 249 250 251 252 252 252 252 252 254 255 255 256 256 258 260 261 262 264 266 268 270
246 247 249 249 248 247 248 246 247 249 247 247 247 247 247 248 248 249 250 251 250 249 249 249 250 251 252 251 251 251 251 251 252 252 251 252 255 257 257 258 258 260 263 264 264 265 267 268 269
246 246 248 249 249 250 249 248 249 250 248 247 248 248 248 247 248 248 248 249 249 248 247 249 250 252 253 251 251 250 251 250 251 252 253 253 255 256 257 260 260 260 262 264 264 265 266 267 268
246 246 247 248 250 250 250 248 249 251 250 249 249 249 249 248 248 247 248 249 248 247 247 249 250 251 251 251 251 252 251 251 251 252 254 255 255 257 259 260 261 261 262 264 264 265 266 266 266
246 246 247 249 250 251 250 249 250 251 250 250 250 249 249 248 247 247 248 249 249 249 249 250 251 251 252 252 252 253 253 253 252 252 253 254 256 258 261 262 262 261 262 263 264 265 265 266 266
247 247 246 248 249 250 251 249 250 251 251 250 250 250 249 248 248 249 249 249 249 250 250 251 251 251 251 252 253 253 253 253 254 251 252 254 257 260 261 263 263 263 263 264 263 263 265 266 266
248 247 248 248 249 250 251 250 250 252 251 250 250 250 250 250 250 250 250 250 250 250 251 251 253 253 252 252 253 253 253 254 255 254 253 254 257 261 262 264 264 265 265 265 264 263 265 266 267
248 249 249 249 250 250 251 251 251 252 250 249 251 251 249 251 251 251 250 250 251 251 251 252 253 254 254 254 254 254 254 254 254 255 256 256 258 260 262 264 266 266 265 265 265 264 265 266 267
248 250 251 251 250 250 251 252 252 252 250 250 250 250 250 251 252 251 251 252 253 253 252 252 253 253 254 254 254 255 255 254 255 257 258 258 259 260 262 263 265 266 265 265 265 265 265 266 267
250 250 251 252 252 250 251 252 252 252 252 252 251 251 252 252 252 253 254 255 255 255 253 252 252 253 254 254 255 255 256 256 257 258 259 260 261 262 263 264 265 266 266 267 266 266 265 266 267
251 251 252 252 253 252 252 252 252 252 253 253 253 252 251 251 252 253 254 255 256 256 255 254 253 254 254 254 255 256 257 257 258 258 259 260 262 263 264 264 265 265 266 266 266 267 267 267 268
251 252 252 253 254 254 254 254 253 252 253 253 253 252 251 252 254 255 255 257 257 257 256 255 255 254 254 254 255 256 257 258 258 259 260 261 262 263 264 265 265 265 266 267 267 268 269 269 269
253 254 253 253 254 254 254 254 254 253 253 254 253 253 254 254 255 256 258 258 258 257 257 256 256 256 255 255 255 256 257 258 259 260 261 262 263 264 265 265 266 265 266 267 268 268 269 268 269
255 256 255 253 255 256 256 256 255 254 254 254 254 254 255 256 257 257 258 259 259 259 259 258 257 257 257 256 257 257 258 260 261 261 262 263 264 264 264 265 265 265 265 266 267 268 269 270 269
256 257 257 256 255 257 258 257 256 255 255 256 255 255 256 257 258 258 259 259 260 260 260 260 259 259 259 259 259 259 260 261 262 262 263 264 264 264 265 265 265 266 266 267 267 268 269 270 269
260 260 260 260 258 259 259 259 257 256 256 256 256 256 256 257 258 259 260 261 261 262 262 262 261 260 260 259 260 260 260 261 262 263 264 265 265 266 266 266 266 266 267 268 269 269 269 270 271
260 261 262 261 261 261 260 260 260 259 258 258 258 258 258 258 258 259 259 260 262 262 263 263 262 260 260 260 260 261 261 261 262 263 264 265 266 267 267 267 267 267 267 268 269 269 270 270 271
260 261 263 263 263 263 263 262 262 261 260 260 260 260 260 259 259 259 260 260 261 262 263 263 262 261 261 261 261 261 261 262 263 264 265 265 266 266 267 268 268 268 268 269 269 270 271 271 271
261 261 262 263 263 263 263 263 262 261 262 262 261 261 261 260 260 260 261 261 262 262 262 263 263 263 263 263 262 262 262 262 263 264 264 265 266 266 267 268 268 268 269 270 270 270 271 271 271
262 263 262 262 263 263 264 265 263 264 264 264 264 264 264 263 263 262 262 263 263 263 262 262 262 263 263 263 263 262 262 263 263 263 264 265 265 266 267 267 267 268 269 270 271 271 271 271 271
263 263 263 263 264 264 265 267 266 266 266 266 266 266 267 267 266 265 264 265 264 263 263 263 262 262 262 263 263 264 264 264 264 263 264 265 265 266 267 267 267 268 269 270 271 272 272 272 272
263 263 264 264 265 265 266 268 268 268 269 269 268 268 268 268 268 267 266 266 266 265 264 264 263 263 263 263 264 264 265 265 264 264 265 265 266 267 267 268 268 269 269 270 271 272 272 273 273
263 264 265 266 266 268 268 268 270 270 270 271 271 270 269 268 268 268 267 267 267 266 265 264 264 263 263 263 264 264 265 266 266 266 266 266 267 267 268 269 269 270 271 271 271 272 273 273 273
265 265 266 268 269 270 269 270 271 271 271 271 272 272 271 270 269 269 269 268 267 266 265 265 265 264 264 264 264 265 266 267 268 269 268 268 268 269 269 269 269 270 271 272 272 272 273 273 273
266 264 265 267 269 270 271 272 272 273 272 272 273 274 274 273 271 270 269 268 267 267 267 267 267 266 265 266 266 267 268 268 269 270 271 270 269 270 270 270 271 271 272 273 273 273 273 273 273
265 266 265 267 270 271 272 274 276 276 276 275 276 276 276 274 273 271 270 269 268 268 268 269 269 268 268 268 268 268 268 269 271 271 272 273 272 271 271 271 272 273 273 273 273 272 273 273 273
264 265 266 267 269 272 275 277 279 280 280 280 279 278 277 276 276 275 272 271 271 270 271 271 271 270 270 270 269 269 270 271 271 272 273 273 273 272 272 273 273 274 274 274 273 273 273 273 273
264 266 267 267 268 271 274 277 279 281 282 282 282 281 280 279 279 277 276 274 273 273 273 273 272 271 271 272 271 271 272 272 272 273 273 274 275 274 274 274 274 275 275 275 274 274 274 275 275
Height
5795 5797 5798 5800 5802 5804 5806 5808 5809 5810 5812 5814 5815 5816 5817 5819 5820 5824 5824 5824 5826 5828 5829 5831 5832 5833 5834 5835 5836 5837 5838 5839 5840 5841 5842 5843 5844 5844 5845 5845 5846 5846 5847 5847 5847 5848 5848 5848 5849
5790 5792 5794 5795 5797 5799 5802 5803 5804 5805 5807 5809 5810 5811 5813 5813 5815 5817 5818 5819 5821 5823 5825 5826 5828 5829 5830 5831 5833 5834 5835 5836 5837 5838 5839 5840 5841 5842 5842 5843 5843 5844 5844 5845 5845 5845 5846 5846 5846
5785 5786 5789 5790 5792 5794 5797 5798 5799 5800 5802 5804 5805 5806 5808 5809 5811 5812 5814 5815 5816 5818 5820 5822 5823 5824 5826 5827 5828 5830 5831 5832 5834 5835 5836 5837 5838 5839 5839 5840 5841 5841 5842 5842 5842 5843 5843 5843 5844
5780 5782 5783 5786 5787 5790 5791 5792 5794 5795 5797 5799 5800 5801 5803 5804 5806 5808 5809 5810 5812 5813 5815 5817 5818 5820 5821 5823 5824 5825 5827 5828 5830 5831 5832 5833 5834 5835 5836 5837 5837 5838 5839 5839 5839 5839 5840 5840 5841
5774 5776 5778 5780 5782 5785 5785 5787 5788 5790 5792 5793 5794 5795 5797 5799 5801 5803 5804 5805 5807 5808 5810 5812 5814 5815 5817 5818 5819 5820 5822 5824 5825 5827 5828 5829 5830 5831 5832 5833 5833 5834 5835 5835 5836 5836 5836 5837 5837
5769 5771 5773 5775 5777 5779 5780 5782 5783 5784 5786 5787 5789 5790 5791 5794 5796 5797 5799 5800 5802 5804 5805 5807 5808 5810 5812 5813 5814 5816 5817 5819 5821 5822 5823 5825 5826 5827 5828 5829 5829 5830 5831 5831 5832 5832 5832 5833 5833
5764 5765 5767 5770 5772 5773 5775 5776 5778 5779 5780 5782 5783 5784 5785 5788 5790 5792 5793 5795 5797 5799 5800 5802 5803 5805 5806 5808 5809 5811 5813 5814 5816 5817 5819 5820 5821 5822 5823 5824 5825 5825 5826 5826 5827 5827 5828 5828 5829
5758 5761 5762 5764 5766 5768 5769 5771 5772 5774 5775 5776 5777 5779 5780 5783 5784 5786 5788 5789 5791 5793 5795 5797 5798 5799 5801 5802 5804 5806 5807 5809 5810 5812 5813 5815 5816 5817 5818 5819 5820 5820 5821 5821 5822 5822 5823 5823 5824
5752 5755 5756 5758 5760 5761 5763 5765 5767 5768 5769 5770 5772 5774 5776 5777 5778 5780 5782 5784 5785 5787 5789 5790 5792 5793 5795 5796 5798 5800 5801 5803 5805 5806 5808 5809 5810 5811 5812 5813 5814 5815 5815 5816 5816 5817 5817 5818 5818
5746 5748 5751 5752 5753 5755 5757 5759 5761 5762 5763 5765 5766 5768 5770 5771 5773 5774 5776 5778 5780 5781 5782 5784 5785 5787 5788 5790 5792 5794 5795 5797 5799 5800 5802 5803 5805 5806 5807 5807 5808 5808 5809 5810 5810 5811 5811 5812 5812
5740 5742 5744 5745 5746 5748 5750 5752 5755 5756 5758 5760 5761 5762 5763 5765 5767 5768 5770 5772 5773 5775 5776 5777 5779 5780 5782 5784 5785 5787 5789 5791 5792 5794 5795 5797 5798 5799 5800 5801 5801 5802 5802 5803 5803 5804 5805 5805 5805
5734 5736 5737 5739 5740 5742 5743 5746 5748 5749 5752 5753 5754 5756 5758 5759 5760 5762 5763 5765 5767 5768 5769 5770 5772 5774 5775 5777 5779 5780 5782 5784 5785 5787 5788 5790 5791 5792 5793 5794 5794 5795 5795 5796 5796 5797 5797 5798 5798
5727 5729 5730 5732 5733 5735 5737 5739 5741 5743 5745 5746 5747 5749 5751 5752 5754 5755 5756 5758 5759 5760 5762 5763 5765 5766 5768 5770 5771 5773 5775 5776 5778 5779 5781 5782 5783 5785 5785 5786 5787 5787 5788 5788 5789 5789 5790 5790 5790
5720 5722 5723 5725 5727 5728 5730 5732 5734 5737 5738 5739 5740 5742 5743 5745 5747 5748 5749 5750 5752 5753 5754 5755 5757 5758 5760 5762 5763 5765 5767 5768 5770 5771 5773 5774 5775 5776 5777 5778 5779 5779 5779 5780 5780 5781 5781 5782 5782
5713 5714 5716 5718 5720 5721 5722 5724 5727 5729 5729 5731 5733 5734 5736 5738 5739 5741 5742 5743 5744 5745 5746 5747 5749 5750 5752 5753 5755 5757 5758 5760 5761 5763 5764 5766 5767 5768 5769 5770 5770 5771 5771 5772 5772 5772 5773 5773 5773
5706 5707 5709 5712 5713 5713 5716 5717 5719 5720 5721 5723 5725 5726 5728 5730 5731 5733 5734 5735 5736 5737 5738 5739 5740 5742 5743 5745 5747 5748 5750 5751 5753 5754 5755 5756 5758 5759 5760 5761 5761 5762 5762 5763 5763 5764 5764 5764 5764
5699 5701 5702 5704 5705 5706 5707 5709 5711 5712 5713 5714 5716 5718 5720 5721 5723 5724 5726 5727 5728 5729 5730 5731 5732 5733 5734 5736 5738 5739 5741 5743 5744 5745 5746 5747 5748 5749 5750 5751 5752 5753 5753 5753 5754 5754 5754 5754 5754
5694 5694 5695 5696 5697 5698 5699 5701 5703 5703 5704 5706 5707 5709 5711 5713 5714 5716 5717 5718 5719 5720 5721 5722 5723 5724 5725 5727 5729 5730 5732 5733 5735 5736 5737 5738 5738 5739 5740 5741 5742 5743 5743 5743 5744 5744 5744 5744 5744
5686 5687 5687 5688 5689 5690 5691 5693 5694 5695 5696 5697 5698 5700 5702 5703 5705 5706 5707 5708 5709 5711 5712 5713 5714 5715 5716 5717 5719 5721 5722 5724 5725 5726 5727 5728 5729 5729 5730 5731 5731 5732 5733 5733 5733 5733 5734 5734 5733
5678 5679 5680 5680 5681 5682 5682 5684 5686 5687 5687 5688 5689 5690 5692 5693 5695 5696 5697 5698 5700 5701 5702 5703 5704 5705 5706 5708 5709 5711 5712 5714 5715 5716 5717 5717 5718 5719 5720 5720 5721 5721 5722 5722 5722 5722 5722 5722 5722
5671 5672 5672 5672 5673 5673 5674 5676 5678 5679 5679 5679 5680 5681 5682 5683 5685 5686 5687 5689 5690 5691 5692 5693 5694 5695 5697 5698 5699 5701 5702 5703 5704 5705 5706 5707 5707 5708 5709 5709 5710 5710 5710 5711 5710 5710 5711 5711 5710
5664 5664 5664 5664 5665 5666 5667 5666 5670 5671 5671 5671 5672 5673 5673 5674 5675 5676 5677 5678 5680 5681 5682 5683 5684 5685 5686 5687 5689 5690 5691 5693 5694 5694 5695 5696 5696 5697 5697 5698 5698 5699 5699 5699 5699 5698 5698 5698 5698
5656 5656 5657 5657 5657 5658 5659 5658 5662 5662 5662 5663 5663 5664 5664 5665 5665 5667 5667 5668 5669 5670 5671 5672 5673 5674 5676 5677 5678 5679 5681 5682 5682 5683 5684 5684 5685 5685 5685 5686 5686 5687 5687 5687 5686 5686 5685 5685 5685
5649 5649 5649 5649 5649 5650 5652 5651 5652 5654 5654 5654 5655 5655 5655 5655 5656 5657 5657 5658 5658 5659 5660 5661 5662 5663 5665 5666 5667 5668 5669 5670 5671 5671 5672 5673 5673 5673 5673 5673 5674 5674 5674 5674 5673 5673 5673 5672 5671
5642 5643 5642 5642 5642 5643 5645 5643 5645 5646 5646 5646 5647 5647 5647 5647 5647 5647 5648 5648 5649 5649 5650 5650 5651 5652 5653 5654 5655 5657 5658 5658 5659 5660 5660 5660 5661 5661 5661 5661 5661 5661 5661 5660 5660 5659 5659 5658 5658
5635 5636 5637 5636 5636 5636 5637 5637 5639 5640 5639 5639 5639 5639 5639 5639 5638 5639 5639 5639 5640 5640 5640 5641 5641 5642 5643 5644 5645 5645 5646 5647 5647 5648 5648 5648 5648 5648 5648 5648 5648 5648 5647 5646 5646 5645 5645 5644 5643
5629 5629 5630 5630 5630 5630 5630 5631 5632 5633 5632 5632 5632 5631 5631 5631 5630 5630 5630 5630 5631 5631 5631 5631 5632 5632 5633 5633 5634 5635 5635 5636 5636 5636 5636 5636 5636 5636 5635 5635 5635 5634 5633 5632 5631 5631 5630 5629 5629
5623 5624 5624 5624 5623 5623 5624 5624 5626 5626 5626 5625 5625 5624 5623 5623 5622 5622 5622 5622 5622 5622 5622 5622 5623 5623 5623 5624 5624 5624 5625 5625 5625 5625 5624 5624 5623 5623 5622 5622 5621 5620 5619 5618 5617 5617 5616 5615 5615
5618 5618 5618 5618 5618 5618 5617 5621 5620 5619 5619 5618 5618 5617 5616 5615 5615 5614 5614 5614 5613 5613 5613 5613 5613 5614 5614 5614 5614 5614 5614 5614 5614 5613 5613 5612 5612 5611 5610 5609 5608 5607 5606 5605 5604 5603 5602 5601 5600
5611 5612 5612 5613 5612 5612 5612 5616 5614 5613 5612 5611 5611 5610 5609 5608 5607 5607 5606 5606 5605 5605 5605 5604 5604 5604 5604 5604 5604 5604 5604 5603 5603 5602 5601 5601 5600 5599 5598 5596 5595 5594 5593 5591 5590 5589 5588 5587 5586